Year,Month,Day,Hour,Minute,Value (Times are PST for temperature in C)
2006,07,06,00,00,14.50
2006,07,06,00,01,14.50
2006,07,06,00,02,14.50
2006,07,06,00,03,14.40
2006,07,06,00,04,14.40
2006,07,06,00,05,14.40
2006,07,06,00,06,14.40
2006,07,06,00,07,14.40
2006,07,06,00,08,14.40
2006,07,06,00,09,14.40
2006,07,06,00,10,14.30
2006,07,06,00,11,14.20
2006,07,06,00,12,14.30
2006,07,06,00,13,14.30
2006,07,06,00,14,14.30
2006,07,06,00,15,14.30
2006,07,06,00,16,14.30
2006,07,06,00,17,14.30
2006,07,06,00,18,14.30
2006,07,06,00,19,14.30
2006,07,06,00,20,14.20
2006,07,06,00,21,14.20
2006,07,06,00,22,14.20
2006,07,06,00,23,14.20
2006,07,06,00,24,14.10
2006,07,06,00,25,14.10
2006,07,06,00,26,14.10
2006,07,06,00,27,14.00
2006,07,06,00,28,14.00
2006,07,06,00,29,14.00
2006,07,06,00,30,13.90
2006,07,06,00,31,13.90
2006,07,06,00,32,13.90
2006,07,06,00,33,13.90
2006,07,06,00,34,13.90
2006,07,06,00,35,13.90
2006,07,06,00,36,13.90
2006,07,06,00,37,13.80
2006,07,06,00,38,13.80
2006,07,06,00,39,13.80
2006,07,06,00,40,13.90
2006,07,06,00,41,13.90
2006,07,06,00,42,13.90
2006,07,06,00,43,13.90
2006,07,06,00,44,13.90
2006,07,06,00,45,13.80
2006,07,06,00,46,13.70
2006,07,06,00,47,13.80
2006,07,06,00,48,13.80
2006,07,06,00,49,13.80
2006,07,06,00,50,13.80
2006,07,06,00,51,13.80
2006,07,06,00,52,13.70
2006,07,06,00,53,13.70
2006,07,06,00,54,13.70
2006,07,06,00,55,13.70
2006,07,06,00,56,13.70
2006,07,06,00,57,13.70
2006,07,06,00,58,13.70
2006,07,06,00,59,13.70
2006,07,06,01,00,13.70
2006,07,06,01,01,13.60
2006,07,06,01,02,13.70
2006,07,06,01,03,13.70
2006,07,06,01,04,13.70
2006,07,06,01,05,13.60
2006,07,06,01,06,13.60
2006,07,06,01,07,13.60
2006,07,06,01,08,13.60
2006,07,06,01,09,13.70
2006,07,06,01,10,13.70
2006,07,06,01,11,13.70
2006,07,06,01,12,13.70
2006,07,06,01,13,13.60
2006,07,06,01,14,13.60
2006,07,06,01,15,13.60
2006,07,06,01,16,13.60
2006,07,06,01,17,13.60
2006,07,06,01,18,13.60
2006,07,06,01,19,13.60
2006,07,06,01,20,13.60
2006,07,06,01,21,13.60
2006,07,06,01,22,13.60
2006,07,06,01,23,13.60
2006,07,06,01,24,13.60
2006,07,06,01,25,13.60
2006,07,06,01,26,13.50
2006,07,06,01,27,13.50
2006,07,06,01,28,13.50
2006,07,06,01,29,13.50
2006,07,06,01,30,13.50
2006,07,06,01,31,13.50
2006,07,06,01,32,13.60
2006,07,06,01,33,13.50
2006,07,06,01,34,13.50
2006,07,06,01,35,13.50
2006,07,06,01,36,13.50
2006,07,06,01,37,13.50
2006,07,06,01,38,13.50
2006,07,06,01,39,13.50
2006,07,06,01,40,13.50
2006,07,06,01,41,13.40
2006,07,06,01,42,13.40
2006,07,06,01,43,13.40
2006,07,06,01,44,13.50
2006,07,06,01,45,13.50
2006,07,06,01,46,13.50
2006,07,06,01,47,13.50
2006,07,06,01,48,13.50
2006,07,06,01,49,13.40
2006,07,06,01,50,13.50
2006,07,06,01,51,13.50
2006,07,06,01,52,13.40
2006,07,06,01,53,13.40
2006,07,06,01,54,13.40
2006,07,06,01,55,13.40
2006,07,06,01,56,13.50
2006,07,06,01,57,13.50
2006,07,06,01,58,13.50
2006,07,06,01,59,13.50
2006,07,06,02,00,13.40
2006,07,06,02,01,13.50
2006,07,06,02,02,13.50
2006,07,06,02,03,13.50
2006,07,06,02,04,13.50
2006,07,06,02,05,13.50
2006,07,06,02,06,13.50
2006,07,06,02,07,13.50
2006,07,06,02,08,13.50
2006,07,06,02,09,13.50
2006,07,06,02,10,13.50
2006,07,06,02,11,13.60
2006,07,06,02,12,13.60
2006,07,06,02,13,13.60
2006,07,06,02,14,13.60
2006,07,06,02,15,13.60
2006,07,06,02,16,13.60
2006,07,06,02,17,13.60
2006,07,06,02,18,13.60
2006,07,06,02,19,13.60
2006,07,06,02,20,13.60
2006,07,06,02,21,13.60
2006,07,06,02,22,13.70
2006,07,06,02,23,13.70
2006,07,06,02,24,13.70
2006,07,06,02,25,13.70
2006,07,06,02,26,13.70
2006,07,06,02,27,13.70
2006,07,06,02,28,13.70
2006,07,06,02,29,13.70
2006,07,06,02,30,13.70
2006,07,06,02,31,13.70
2006,07,06,02,32,13.70
2006,07,06,02,33,13.70
2006,07,06,02,34,13.70
2006,07,06,02,35,13.70
2006,07,06,02,36,13.70
2006,07,06,02,37,13.70
2006,07,06,02,38,13.70
2006,07,06,02,39,13.70
2006,07,06,02,40,13.70
2006,07,06,02,41,13.70
2006,07,06,02,42,13.70
2006,07,06,02,43,13.70
2006,07,06,02,44,13.70
2006,07,06,02,45,13.70
2006,07,06,02,46,13.70
2006,07,06,02,47,13.70
2006,07,06,02,48,13.80
2006,07,06,02,49,13.80
2006,07,06,02,50,13.80
2006,07,06,02,51,13.90
2006,07,06,02,52,13.90
2006,07,06,02,53,13.80
2006,07,06,02,54,13.80
2006,07,06,02,55,13.90
2006,07,06,02,56,13.90
2006,07,06,02,57,13.90
2006,07,06,02,58,13.90
2006,07,06,02,59,13.90
2006,07,06,03,00,13.80
2006,07,06,03,01,13.80
2006,07,06,03,02,13.90
2006,07,06,03,03,13.90
2006,07,06,03,04,13.80
2006,07,06,03,05,13.80
2006,07,06,03,06,13.80
2006,07,06,03,07,13.80
2006,07,06,03,08,13.80
2006,07,06,03,09,13.80
2006,07,06,03,10,13.80
2006,07,06,03,11,13.80
2006,07,06,03,12,13.80
2006,07,06,03,13,13.80
2006,07,06,03,14,13.90
2006,07,06,03,15,13.80
2006,07,06,03,16,13.80
2006,07,06,03,17,13.80
2006,07,06,03,18,13.80
2006,07,06,03,19,13.80
2006,07,06,03,20,13.80
2006,07,06,03,21,13.80
2006,07,06,03,22,13.80
2006,07,06,03,23,13.80
2006,07,06,03,24,13.80
2006,07,06,03,25,13.80
2006,07,06,03,26,13.70
2006,07,06,03,27,13.70
2006,07,06,03,28,13.70
2006,07,06,03,29,13.70
2006,07,06,03,30,13.70
2006,07,06,03,31,13.70
2006,07,06,03,32,13.70
2006,07,06,03,33,13.70
2006,07,06,03,34,13.70
2006,07,06,03,35,13.70
2006,07,06,03,36,13.70
2006,07,06,03,37,13.70
2006,07,06,03,38,13.70
2006,07,06,03,39,13.70
2006,07,06,03,40,13.70
2006,07,06,03,41,13.70
2006,07,06,03,42,13.70
2006,07,06,03,43,13.70
2006,07,06,03,44,13.70
2006,07,06,03,45,13.70
2006,07,06,03,46,13.70
2006,07,06,03,47,13.70
2006,07,06,03,48,13.70
2006,07,06,03,49,13.70
2006,07,06,03,50,13.70
2006,07,06,03,51,13.70
2006,07,06,03,52,13.70
2006,07,06,03,53,13.70
2006,07,06,03,54,13.70
2006,07,06,03,55,13.80
2006,07,06,03,56,13.80
2006,07,06,03,57,13.80
2006,07,06,03,58,13.70
2006,07,06,03,59,13.70
2006,07,06,04,00,13.70
2006,07,06,04,01,13.70
2006,07,06,04,02,13.70
2006,07,06,04,03,13.70
2006,07,06,04,04,13.70
2006,07,06,04,05,13.70
2006,07,06,04,06,13.70
2006,07,06,04,07,13.80
2006,07,06,04,08,13.80
2006,07,06,04,09,13.80
2006,07,06,04,10,13.80
2006,07,06,04,11,13.80
2006,07,06,04,12,13.80
2006,07,06,04,13,13.80
2006,07,06,04,14,13.80
2006,07,06,04,15,13.80
2006,07,06,04,16,13.80
2006,07,06,04,17,13.80
2006,07,06,04,18,13.80
2006,07,06,04,19,13.80
2006,07,06,04,20,13.70
2006,07,06,04,21,13.80
2006,07,06,04,22,13.80
2006,07,06,04,23,13.80
2006,07,06,04,24,13.80
2006,07,06,04,25,13.80
2006,07,06,04,26,13.80
2006,07,06,04,27,13.80
2006,07,06,04,28,13.80
2006,07,06,04,29,13.80
2006,07,06,04,30,13.80
2006,07,06,04,31,13.80
2006,07,06,04,32,13.80
2006,07,06,04,33,13.80
2006,07,06,04,34,13.90
2006,07,06,04,35,13.90
2006,07,06,04,36,13.90
2006,07,06,04,37,13.90
2006,07,06,04,38,13.90
2006,07,06,04,39,13.90
2006,07,06,04,40,13.90
2006,07,06,04,41,13.90
2006,07,06,04,42,13.90
2006,07,06,04,43,13.90
2006,07,06,04,44,13.90
2006,07,06,04,45,13.90
2006,07,06,04,46,13.90
2006,07,06,04,47,13.90
2006,07,06,04,48,13.90
2006,07,06,04,49,13.90
2006,07,06,04,50,13.90
2006,07,06,04,51,13.90
2006,07,06,04,52,13.90
2006,07,06,04,53,14.00
2006,07,06,04,54,13.90
2006,07,06,04,55,13.90
2006,07,06,04,56,13.90
2006,07,06,04,57,14.00
2006,07,06,04,58,13.90
2006,07,06,04,59,13.90
2006,07,06,05,00,13.90
2006,07,06,05,01,14.00
2006,07,06,05,02,14.00
2006,07,06,05,03,14.00
2006,07,06,05,04,14.00
2006,07,06,05,05,14.00
2006,07,06,05,06,14.00
2006,07,06,05,07,14.00
2006,07,06,05,08,14.00
2006,07,06,05,09,14.00
2006,07,06,05,10,14.00
2006,07,06,05,11,14.00
2006,07,06,05,12,14.00
2006,07,06,05,13,14.00
2006,07,06,05,14,14.00
2006,07,06,05,15,14.00
2006,07,06,05,16,13.90
2006,07,06,05,17,13.90
2006,07,06,05,18,14.00
2006,07,06,05,19,14.00
2006,07,06,05,20,13.90
2006,07,06,05,21,13.90
2006,07,06,05,22,13.90
2006,07,06,05,23,13.80
2006,07,06,05,24,13.80
2006,07,06,05,25,13.80
2006,07,06,05,26,13.80
2006,07,06,05,27,13.80
2006,07,06,05,28,13.70
2006,07,06,05,29,13.70
2006,07,06,05,30,13.70
2006,07,06,05,31,13.70
2006,07,06,05,32,13.80
2006,07,06,05,33,13.80
2006,07,06,05,34,13.80
2006,07,06,05,35,13.70
2006,07,06,05,36,13.70
2006,07,06,05,37,13.70
2006,07,06,05,38,13.80
2006,07,06,05,39,13.80
2006,07,06,05,40,13.80
2006,07,06,05,41,13.80
2006,07,06,05,42,13.80
2006,07,06,05,43,13.80
2006,07,06,05,44,13.80
2006,07,06,05,45,13.70
2006,07,06,05,46,13.70
2006,07,06,05,47,13.70
2006,07,06,05,48,13.70
2006,07,06,05,49,13.70
2006,07,06,05,50,13.70
2006,07,06,05,51,13.70
2006,07,06,05,52,13.70
2006,07,06,05,53,13.70
2006,07,06,05,54,13.60
2006,07,06,05,55,13.60
2006,07,06,05,56,13.60
2006,07,06,05,57,13.70
2006,07,06,05,58,13.70
2006,07,06,05,59,13.70
2006,07,06,06,00,13.70
2006,07,06,06,01,13.70
2006,07,06,06,02,13.70
2006,07,06,06,03,13.70
2006,07,06,06,04,13.70
2006,07,06,06,05,13.70
2006,07,06,06,06,13.80
2006,07,06,06,07,13.70
2006,07,06,06,08,13.70
2006,07,06,06,09,13.70
2006,07,06,06,10,13.70
2006,07,06,06,11,13.70
2006,07,06,06,12,13.70
2006,07,06,06,13,13.70
2006,07,06,06,14,13.70
2006,07,06,06,15,13.70
2006,07,06,06,16,13.70
2006,07,06,06,17,13.70
2006,07,06,06,18,13.70
2006,07,06,06,19,13.70
2006,07,06,06,20,13.70
2006,07,06,06,21,13.70
2006,07,06,06,22,13.70
2006,07,06,06,23,13.70
2006,07,06,06,24,13.70
2006,07,06,06,25,13.70
2006,07,06,06,26,13.70
2006,07,06,06,27,13.70
2006,07,06,06,28,13.70
2006,07,06,06,29,13.70
2006,07,06,06,30,13.80
2006,07,06,06,31,13.80
2006,07,06,06,32,13.80
2006,07,06,06,33,13.80
2006,07,06,06,34,13.70
2006,07,06,06,35,13.70
2006,07,06,06,36,13.70
2006,07,06,06,37,13.70
2006,07,06,06,38,13.70
2006,07,06,06,39,13.70
2006,07,06,06,40,13.70
2006,07,06,06,41,13.70
2006,07,06,06,42,13.70
2006,07,06,06,43,13.80
2006,07,06,06,44,13.80
2006,07,06,06,45,13.80
2006,07,06,06,46,13.80
2006,07,06,06,47,13.90
2006,07,06,06,48,13.90
2006,07,06,06,49,13.90
2006,07,06,06,50,14.00
2006,07,06,06,51,14.00
2006,07,06,06,52,14.00
2006,07,06,06,53,14.00
2006,07,06,06,54,14.10
2006,07,06,06,55,14.20
2006,07,06,06,56,14.20
2006,07,06,06,57,14.20
2006,07,06,06,58,14.20
2006,07,06,06,59,14.30
2006,07,06,07,00,14.30
2006,07,06,07,01,14.40
2006,07,06,07,02,14.40
2006,07,06,07,03,14.40
2006,07,06,07,04,14.50
2006,07,06,07,05,14.50
2006,07,06,07,06,14.50
2006,07,06,07,07,14.60
2006,07,06,07,08,14.60
2006,07,06,07,09,14.60
2006,07,06,07,10,14.70
2006,07,06,07,11,14.70
2006,07,06,07,12,14.80
2006,07,06,07,13,14.80
2006,07,06,07,14,14.90
2006,07,06,07,15,14.90
2006,07,06,07,16,14.90
2006,07,06,07,17,15.00
2006,07,06,07,18,15.00
2006,07,06,07,19,15.10
2006,07,06,07,20,15.10
2006,07,06,07,21,15.20
2006,07,06,07,22,15.20
2006,07,06,07,23,15.30
2006,07,06,07,24,15.30
2006,07,06,07,25,15.40
2006,07,06,07,26,15.40
2006,07,06,07,27,15.50
2006,07,06,07,28,15.50
2006,07,06,07,29,15.50
2006,07,06,07,30,15.40
2006,07,06,07,31,15.30
2006,07,06,07,32,15.30
2006,07,06,07,33,15.40
2006,07,06,07,34,15.40
2006,07,06,07,35,15.50
2006,07,06,07,36,15.50
2006,07,06,07,37,15.50
2006,07,06,07,38,15.50
2006,07,06,07,39,15.50
2006,07,06,07,40,15.50
2006,07,06,07,41,15.50
2006,07,06,07,42,15.50
2006,07,06,07,43,15.50
2006,07,06,07,44,15.60
2006,07,06,07,45,15.60
2006,07,06,07,46,15.60
2006,07,06,07,47,15.60
2006,07,06,07,48,15.60
2006,07,06,07,49,15.60
2006,07,06,07,50,15.60
2006,07,06,07,51,15.60
2006,07,06,07,52,15.60
2006,07,06,07,53,15.70
2006,07,06,07,54,15.70
2006,07,06,07,55,15.70
2006,07,06,07,56,15.70
2006,07,06,07,57,15.70
2006,07,06,07,58,15.60
2006,07,06,07,59,15.60
2006,07,06,08,00,15.60
2006,07,06,08,01,15.60
2006,07,06,08,02,15.60
2006,07,06,08,03,15.50
2006,07,06,08,04,15.50
2006,07,06,08,05,15.40
2006,07,06,08,06,15.40
2006,07,06,08,07,15.40
2006,07,06,08,08,15.40
2006,07,06,08,09,15.40
2006,07,06,08,10,15.40
2006,07,06,08,11,15.40
2006,07,06,08,12,15.40
2006,07,06,08,13,15.60
2006,07,06,08,14,15.60
2006,07,06,08,15,15.80
2006,07,06,08,16,15.80
2006,07,06,08,17,15.80
2006,07,06,08,18,15.90
2006,07,06,08,19,15.90
2006,07,06,08,20,16.00
2006,07,06,08,21,16.10
2006,07,06,08,22,16.10
2006,07,06,08,23,16.10
2006,07,06,08,24,16.00
2006,07,06,08,25,15.90
2006,07,06,08,26,15.80
2006,07,06,08,27,15.80
2006,07,06,08,28,15.80
2006,07,06,08,29,15.80
2006,07,06,08,30,15.80
2006,07,06,08,31,15.80
2006,07,06,08,32,15.80
2006,07,06,08,33,15.80
2006,07,06,08,34,15.80
2006,07,06,08,35,15.80
2006,07,06,08,36,15.80
2006,07,06,08,37,15.80
2006,07,06,08,38,15.80
2006,07,06,08,39,15.80
2006,07,06,08,40,15.80
2006,07,06,08,41,15.90
2006,07,06,08,42,16.00
2006,07,06,08,43,16.20
2006,07,06,08,44,16.30
2006,07,06,08,45,16.40
2006,07,06,08,46,16.50
2006,07,06,08,47,16.60
2006,07,06,08,48,16.70
2006,07,06,08,49,16.70
2006,07,06,08,50,16.70
2006,07,06,08,51,16.70
2006,07,06,08,52,16.70
2006,07,06,08,53,16.60
2006,07,06,08,54,16.60
2006,07,06,08,55,16.70
2006,07,06,08,56,16.80
2006,07,06,08,57,16.80
2006,07,06,08,58,16.80
2006,07,06,08,59,16.90
2006,07,06,09,00,16.90
2006,07,06,09,01,16.90
2006,07,06,09,02,17.00
2006,07,06,09,03,17.00
2006,07,06,09,04,16.80
2006,07,06,09,05,16.70
2006,07,06,09,06,16.70
2006,07,06,09,07,16.70
2006,07,06,09,08,16.70
2006,07,06,09,09,16.70
2006,07,06,09,10,16.80
2006,07,06,09,11,16.90
2006,07,06,09,12,17.00
2006,07,06,09,13,17.00
2006,07,06,09,14,17.00
2006,07,06,09,15,17.00
2006,07,06,09,16,16.90
2006,07,06,09,17,16.90
2006,07,06,09,18,17.00
2006,07,06,09,19,17.10
2006,07,06,09,20,17.10
2006,07,06,09,21,17.20
2006,07,06,09,22,17.20
2006,07,06,09,23,17.20
2006,07,06,09,24,17.20
2006,07,06,09,25,17.30
2006,07,06,09,26,17.30
2006,07,06,09,27,17.30
2006,07,06,09,28,17.30
2006,07,06,09,29,17.30
2006,07,06,09,30,17.30
2006,07,06,09,31,17.40
2006,07,06,09,32,17.30
2006,07,06,09,33,17.30
2006,07,06,09,34,17.30
2006,07,06,09,35,17.40
2006,07,06,09,36,17.50
2006,07,06,09,37,17.60
2006,07,06,09,38,17.70
2006,07,06,09,39,17.80
2006,07,06,09,40,17.80
2006,07,06,09,41,17.90
2006,07,06,09,42,17.90
2006,07,06,09,43,18.00
2006,07,06,09,44,18.10
2006,07,06,09,45,18.20
2006,07,06,09,46,18.20
2006,07,06,09,47,18.20
2006,07,06,09,48,18.20
2006,07,06,09,49,18.20
2006,07,06,09,50,18.10
2006,07,06,09,51,18.10
2006,07,06,09,52,18.10
2006,07,06,09,53,18.10
2006,07,06,09,54,18.10
2006,07,06,09,55,18.30
2006,07,06,09,56,18.50
2006,07,06,09,57,18.60
2006,07,06,09,58,18.70
2006,07,06,09,59,18.70
2006,07,06,10,00,18.80
2006,07,06,10,01,18.70
2006,07,06,10,02,18.60
2006,07,06,10,03,18.40
2006,07,06,10,04,18.20
2006,07,06,10,05,18.00
2006,07,06,10,06,17.80
2006,07,06,10,07,17.60
2006,07,06,10,08,17.50
2006,07,06,10,09,17.40
2006,07,06,10,10,17.30
2006,07,06,10,11,17.30
2006,07,06,10,12,17.10
2006,07,06,10,13,17.00
2006,07,06,10,14,17.00
2006,07,06,10,15,17.00
2006,07,06,10,16,17.00
2006,07,06,10,17,16.90
2006,07,06,10,18,16.80
2006,07,06,10,19,16.80
2006,07,06,10,20,16.90
2006,07,06,10,21,16.80
2006,07,06,10,22,16.80
2006,07,06,10,23,16.90
2006,07,06,10,24,17.00
2006,07,06,10,25,17.10
2006,07,06,10,26,17.20
2006,07,06,10,27,17.30
2006,07,06,10,28,17.40
2006,07,06,10,29,17.50
2006,07,06,10,30,17.40
2006,07,06,10,31,17.40
2006,07,06,10,32,17.40
2006,07,06,10,33,17.40
2006,07,06,10,34,17.40
2006,07,06,10,35,17.40
2006,07,06,10,36,17.40
2006,07,06,10,37,17.50
2006,07,06,10,38,17.50
2006,07,06,10,39,17.40
2006,07,06,10,40,17.30
2006,07,06,10,41,17.30
2006,07,06,10,42,17.30
2006,07,06,10,43,17.30
2006,07,06,10,44,17.40
2006,07,06,10,45,17.50
2006,07,06,10,46,17.70
2006,07,06,10,47,17.70
2006,07,06,10,48,17.90
2006,07,06,10,49,17.90
2006,07,06,10,50,17.70
2006,07,06,10,51,17.60
2006,07,06,10,52,17.50
2006,07,06,10,53,17.60
2006,07,06,10,54,17.70
2006,07,06,10,55,17.80
2006,07,06,10,56,17.90
2006,07,06,10,57,17.90
2006,07,06,10,58,17.90
2006,07,06,10,59,17.90
2006,07,06,11,00,17.90
2006,07,06,11,01,18.00
2006,07,06,11,02,18.10
2006,07,06,11,03,18.10
2006,07,06,11,04,18.20
2006,07,06,11,05,18.20
2006,07,06,11,06,18.20
2006,07,06,11,07,18.20
2006,07,06,11,08,18.10
2006,07,06,11,09,18.10
2006,07,06,11,10,18.20
2006,07,06,11,11,18.20
2006,07,06,11,12,18.20
2006,07,06,11,13,18.20
2006,07,06,11,14,18.10
2006,07,06,11,15,18.00
2006,07,06,11,16,18.10
2006,07,06,11,17,18.10
2006,07,06,11,18,18.20
2006,07,06,11,19,18.20
2006,07,06,11,20,18.40
2006,07,06,11,21,18.50
2006,07,06,11,22,18.50
2006,07,06,11,23,18.60
2006,07,06,11,24,18.70
2006,07,06,11,25,18.80
2006,07,06,11,26,18.80
2006,07,06,11,27,18.80
2006,07,06,11,28,18.90
2006,07,06,11,29,19.00
2006,07,06,11,30,19.10
2006,07,06,11,31,19.10
2006,07,06,11,32,19.30
2006,07,06,11,33,19.40
2006,07,06,11,34,19.30
2006,07,06,11,35,19.30
2006,07,06,11,36,19.40
2006,07,06,11,37,19.40
2006,07,06,11,38,19.40
2006,07,06,11,39,19.50
2006,07,06,11,40,19.60
2006,07,06,11,41,19.70
2006,07,06,11,42,19.70
2006,07,06,11,43,19.80
2006,07,06,11,44,19.80
2006,07,06,11,45,19.60
2006,07,06,11,46,19.50
2006,07,06,11,47,19.50
2006,07,06,11,48,19.30
2006,07,06,11,49,19.20
2006,07,06,11,50,19.10
2006,07,06,11,51,19.10
2006,07,06,11,52,19.20
2006,07,06,11,53,19.40
2006,07,06,11,54,19.50
2006,07,06,11,55,19.50
2006,07,06,11,56,19.40
2006,07,06,11,57,19.30
2006,07,06,11,58,19.30
2006,07,06,11,59,19.20
2006,07,06,12,00,19.10
2006,07,06,12,01,19.10
2006,07,06,12,02,19.10
2006,07,06,12,03,19.20
2006,07,06,12,04,19.30
2006,07,06,12,05,19.30
2006,07,06,12,06,19.20
2006,07,06,12,07,19.20
2006,07,06,12,08,19.40
2006,07,06,12,09,19.50
2006,07,06,12,10,19.60
2006,07,06,12,11,19.70
2006,07,06,12,12,19.80
2006,07,06,12,13,19.80
2006,07,06,12,14,19.90
2006,07,06,12,15,19.90
2006,07,06,12,16,19.90
2006,07,06,12,17,19.90
2006,07,06,12,18,19.90
2006,07,06,12,19,19.80
2006,07,06,12,20,19.70
2006,07,06,12,21,19.70
2006,07,06,12,22,19.60
2006,07,06,12,23,19.60
2006,07,06,12,24,19.50
2006,07,06,12,25,19.40
2006,07,06,12,26,19.50
2006,07,06,12,27,19.60
2006,07,06,12,28,19.70
2006,07,06,12,29,19.80
2006,07,06,12,30,19.90
2006,07,06,12,31,19.80
2006,07,06,12,32,19.80
2006,07,06,12,33,19.90
2006,07,06,12,34,20.10
2006,07,06,12,35,20.20
2006,07,06,12,36,20.30
2006,07,06,12,37,20.40
2006,07,06,12,38,20.40
2006,07,06,12,39,20.30
2006,07,06,12,40,20.10
2006,07,06,12,41,20.10
2006,07,06,12,42,20.20
2006,07,06,12,43,20.20
2006,07,06,12,44,20.30
2006,07,06,12,45,20.40
2006,07,06,12,46,20.40
2006,07,06,12,47,20.60
2006,07,06,12,48,20.60
2006,07,06,12,49,20.60
2006,07,06,12,50,20.70
2006,07,06,12,51,20.80
2006,07,06,12,52,20.90
2006,07,06,12,53,21.00
2006,07,06,12,54,21.00
2006,07,06,12,55,20.90
2006,07,06,12,56,20.70
2006,07,06,12,57,20.60
2006,07,06,12,58,20.40
2006,07,06,12,59,20.30
2006,07,06,13,00,20.20
2006,07,06,13,01,20.20
2006,07,06,13,02,20.20
2006,07,06,13,03,20.20
2006,07,06,13,04,20.20
2006,07,06,13,05,20.30
2006,07,06,13,06,20.50
2006,07,06,13,07,20.70
2006,07,06,13,08,21.00
2006,07,06,13,09,21.10
2006,07,06,13,10,21.10
2006,07,06,13,11,21.00
2006,07,06,13,12,21.00
2006,07,06,13,13,21.00
2006,07,06,13,14,21.00
2006,07,06,13,15,20.90
2006,07,06,13,16,20.90
2006,07,06,13,17,20.90
2006,07,06,13,18,21.00
2006,07,06,13,19,21.00
2006,07,06,13,20,21.00
2006,07,06,13,21,20.90
2006,07,06,13,22,20.80
2006,07,06,13,23,20.80
2006,07,06,13,24,20.70
2006,07,06,13,25,20.80
2006,07,06,13,26,20.80
2006,07,06,13,27,20.80
2006,07,06,13,28,20.80
2006,07,06,13,29,20.80
2006,07,06,13,30,20.80
2006,07,06,13,31,20.70
2006,07,06,13,32,20.80
2006,07,06,13,33,20.90
2006,07,06,13,34,20.90
2006,07,06,13,35,21.00
2006,07,06,13,36,21.20
2006,07,06,13,37,21.30
2006,07,06,13,38,21.50
2006,07,06,13,39,21.60
2006,07,06,13,40,21.40
2006,07,06,13,41,21.50
2006,07,06,13,42,21.60
2006,07,06,13,43,21.60
2006,07,06,13,44,21.50
2006,07,06,13,45,21.30
2006,07,06,13,46,21.20
2006,07,06,13,47,21.10
2006,07,06,13,48,21.00
2006,07,06,13,49,21.10
2006,07,06,13,50,21.30
2006,07,06,13,51,21.30
2006,07,06,13,52,21.30
2006,07,06,13,53,21.30
2006,07,06,13,54,21.20
2006,07,06,13,55,21.10
2006,07,06,13,56,21.00
2006,07,06,13,57,20.80
2006,07,06,13,58,20.70
2006,07,06,13,59,20.50
2006,07,06,14,00,20.40
2006,07,06,14,01,20.40
2006,07,06,14,02,20.30
2006,07,06,14,03,20.40
2006,07,06,14,04,20.40
2006,07,06,14,05,20.30
2006,07,06,14,06,20.30
2006,07,06,14,07,20.20
2006,07,06,14,08,20.20
2006,07,06,14,09,20.40
2006,07,06,14,10,20.60
2006,07,06,14,11,20.60
2006,07,06,14,12,20.70
2006,07,06,14,13,20.80
2006,07,06,14,14,20.90
2006,07,06,14,15,20.90
2006,07,06,14,16,20.90
2006,07,06,14,17,20.90
2006,07,06,14,18,20.90
2006,07,06,14,19,20.90
2006,07,06,14,20,20.90
2006,07,06,14,21,21.00
2006,07,06,14,22,21.00
2006,07,06,14,23,21.00
2006,07,06,14,24,21.00
2006,07,06,14,25,21.00
2006,07,06,14,26,20.90
2006,07,06,14,27,20.60
2006,07,06,14,28,20.50
2006,07,06,14,29,20.40
2006,07,06,14,30,20.40
2006,07,06,14,31,20.50
2006,07,06,14,32,20.60
2006,07,06,14,33,20.70
2006,07,06,14,34,20.70
2006,07,06,14,35,20.70
2006,07,06,14,36,20.70
2006,07,06,14,37,20.70
2006,07,06,14,38,20.70
2006,07,06,14,39,20.70
2006,07,06,14,40,20.70
2006,07,06,14,41,20.80
2006,07,06,14,42,20.70
2006,07,06,14,43,20.70
2006,07,06,14,44,20.50
2006,07,06,14,45,20.60
2006,07,06,14,46,20.70
2006,07,06,14,47,20.80
2006,07,06,14,48,20.90
2006,07,06,14,49,21.00
2006,07,06,14,50,21.10
2006,07,06,14,51,21.10
2006,07,06,14,52,21.10
2006,07,06,14,53,21.10
2006,07,06,14,54,21.10
2006,07,06,14,55,21.20
2006,07,06,14,56,21.20
2006,07,06,14,57,21.30
2006,07,06,14,58,21.40
2006,07,06,14,59,21.60
2006,07,06,15,00,21.60
2006,07,06,15,01,21.50
2006,07,06,15,02,21.30
2006,07,06,15,03,21.30
2006,07,06,15,04,21.20
2006,07,06,15,05,21.10
2006,07,06,15,06,21.10
2006,07,06,15,07,21.00
2006,07,06,15,08,20.90
2006,07,06,15,09,20.90
2006,07,06,15,10,20.90
2006,07,06,15,11,20.90
2006,07,06,15,12,20.90
2006,07,06,15,13,20.90
2006,07,06,15,14,21.00
2006,07,06,15,15,21.00
2006,07,06,15,16,21.00
2006,07,06,15,17,21.10
2006,07,06,15,18,21.20
2006,07,06,15,19,21.30
2006,07,06,15,20,21.20
2006,07,06,15,21,21.10
2006,07,06,15,22,21.10
2006,07,06,15,23,21.30
2006,07,06,15,24,21.20
2006,07,06,15,25,21.20
2006,07,06,15,26,21.20
2006,07,06,15,27,21.20
2006,07,06,15,28,21.30
2006,07,06,15,29,21.50
2006,07,06,15,30,21.60
2006,07,06,15,31,21.60
2006,07,06,15,32,21.60
2006,07,06,15,33,21.60
2006,07,06,15,34,21.60
2006,07,06,15,35,21.60
2006,07,06,15,36,21.80
2006,07,06,15,37,21.80
2006,07,06,15,38,21.80
2006,07,06,15,39,21.70
2006,07,06,15,40,21.60
2006,07,06,15,41,21.70
2006,07,06,15,42,21.60
2006,07,06,15,43,21.60
2006,07,06,15,44,21.60
2006,07,06,15,45,21.50
2006,07,06,15,46,21.40
2006,07,06,15,47,21.60
2006,07,06,15,48,21.60
2006,07,06,15,49,21.70
2006,07,06,15,50,21.80
2006,07,06,15,51,21.90
2006,07,06,15,52,21.90
2006,07,06,15,53,21.80
2006,07,06,15,54,21.80
2006,07,06,15,55,21.90
2006,07,06,15,56,22.00
2006,07,06,15,57,22.10
2006,07,06,15,58,22.00
2006,07,06,15,59,21.90
2006,07,06,16,00,21.80
2006,07,06,16,01,21.60
2006,07,06,16,02,21.60
2006,07,06,16,03,21.40
2006,07,06,16,04,21.40
2006,07,06,16,05,21.50
2006,07,06,16,06,21.60
2006,07,06,16,07,21.60
2006,07,06,16,08,21.60
2006,07,06,16,09,21.40
2006,07,06,16,10,21.40
2006,07,06,16,11,21.30
2006,07,06,16,12,21.20
2006,07,06,16,13,21.10
2006,07,06,16,14,21.10
2006,07,06,16,15,21.00
2006,07,06,16,16,21.10
2006,07,06,16,17,21.20
2006,07,06,16,18,21.30
2006,07,06,16,19,21.30
2006,07,06,16,20,21.30
2006,07,06,16,21,21.30
2006,07,06,16,22,21.30
2006,07,06,16,23,21.40
2006,07,06,16,24,21.50
2006,07,06,16,25,21.60
2006,07,06,16,26,21.60
2006,07,06,16,27,21.70
2006,07,06,16,28,21.80
2006,07,06,16,29,21.90
2006,07,06,16,30,22.00
2006,07,06,16,31,22.00
2006,07,06,16,32,22.10
2006,07,06,16,33,22.10
2006,07,06,16,34,22.10
2006,07,06,16,35,22.10
2006,07,06,16,36,22.10
2006,07,06,16,37,22.10
2006,07,06,16,38,22.10
2006,07,06,16,39,22.00
2006,07,06,16,40,21.90
2006,07,06,16,41,21.80
2006,07,06,16,42,21.80
2006,07,06,16,43,21.90
2006,07,06,16,44,21.80
2006,07,06,16,45,21.90
2006,07,06,16,46,22.10
2006,07,06,16,47,22.10
2006,07,06,16,48,22.10
2006,07,06,16,49,22.10
2006,07,06,16,50,22.00
2006,07,06,16,51,21.70
2006,07,06,16,52,21.60
2006,07,06,16,53,21.40
2006,07,06,16,54,21.30
2006,07,06,16,55,21.30
2006,07,06,16,56,21.30
2006,07,06,16,57,21.30
2006,07,06,16,58,21.10
2006,07,06,16,59,21.10
2006,07,06,17,00,21.10
2006,07,06,17,01,21.00
2006,07,06,17,02,20.90
2006,07,06,17,03,20.80
2006,07,06,17,04,20.80
2006,07,06,17,05,20.80
2006,07,06,17,06,21.00
2006,07,06,17,07,21.20
2006,07,06,17,08,21.10
2006,07,06,17,09,21.10
2006,07,06,17,10,21.00
2006,07,06,17,11,20.90
2006,07,06,17,12,20.90
2006,07,06,17,13,20.90
2006,07,06,17,14,21.00
2006,07,06,17,15,20.90
2006,07,06,17,16,20.90
2006,07,06,17,17,20.90
2006,07,06,17,18,20.80
2006,07,06,17,19,20.80